Tracking 29892 objects as of 21-Nov-2024
HD Live streaming from Space Station
objects crossing your sky now

SL-12 R/B(AUX MOTOR)

Track SL-12 R/B(AUX MOTOR) now!
10-day predictions


NORAD ID: 4789
Int'l Code: 1970-103B
Perigee: 1,595.6 km
Apogee: 5,090.2 km
Inclination: 51.6 °
Period: 158.8 minutes
Semi major axis: 9713 km
RCS: 0.738 m2 (medium)
Launch date: December 2, 1970
Source: Commonwealth of Independent States (former USSR) (CIS)
Launch site: TYURATAM MISSILE AND SPACE COMPLEX (TTMTR)

Note: This is a ROCKET BODY
Your satellite tracking list
Your tracking list is empty




NASA's NSSDC Master Catalog

Two Line Element Set (TLE):
1 04789U 70103B   24324.97636169 -.00000027  00000-0  15078-3 0  9995
2 04789  51.6008 312.9625 1798773 288.6556  73.3195  9.06805327787606
Source of the keplerian elements: AFSPC